Weather History for Taunton, MA

Change the Weather History Date:

Wednesday, August 13, 2014

  Actual Average Record
Temperature  
Mean Temperature 70 °F -  
Max Temperature 73 °F 80 °F 98 °F (2002)
Min Temperature 68 °F 58 °F 42 °F (1950)
Cooling Degree Days 5    
Growing Degree Days 20 (Base 50)    
Moisture  
Dew Point 67 °F    
Average Humidity 89    
Maximum Humidity 94    
Minimum Humidity 73    
Precipitation  
Precipitation 0.30 in - - ()
Sea Level Pressure  
Sea Level Pressure 29.76 in    
Wind  
Wind Speed 9 mph (ESE)    
Max Wind Speed 17 mph    
Max Gust Speed 24 mph    
Visibility 7 miles    
Events Rain    
Averages and records for this station are not official NWS values.
T = Trace of Precipitation, MM = Missing Value Source: NWS Daily Summary

Daily Weather History Graph

Daily Weather History Graph

Search for Another Location

Airport:

Trip Planner

Search our weather history database for the weather conditions in past years. The results will help you decide how hot, cold, wet, or windy it might be!

Date:

Astronomy

Aug. 13, 2014 Rise Set
Actual Time 5:50 AM EDT 7:47 PM EDT
Civil Twilight 5:19 AM EDT 8:17 PM EDT
Nautical Twilight 4:42 AM EDT 8:53 PM EDT
Astronomical Twilight 4:02 AM EDT 9:33 PM EDT
Moon 9:25 PM EDT (8/13) 9:18 AM EDT (8/13)
Length of Visible Light 14h 57m
Length of Day
13h 56m
Waning Gibbous, 88% of the Moon is Illuminated
Aug 13
Waning Gibbous
Aug 17
Last Quarter
Aug 25
New
Sep 2
First Quarter
Sep 8
Full

Hourly Weather History & Observations

Time (EDT) Temp. Dew Point Humidity Pressure Visibility Wind Dir Wind Speed Gust Speed Precip Events Conditions
12:52 AM 72.0 °F 63.0 °F 73% 30.00 in 10.0 mi ESE 9.2 mph - N/A   Scattered Clouds
1:52 AM 71.1 °F 64.0 °F 78% 29.97 in 10.0 mi SE 10.4 mph - 0.00 in Rain Light Rain
2:52 AM 71.1 °F 64.9 °F 81% 29.96 in 10.0 mi SE 6.9 mph - 0.00 in Rain Light Rain
3:52 AM 70.0 °F 64.9 °F 84% 29.94 in 10.0 mi SE 8.1 mph 18.4 mph 0.01 in Rain Light Rain
4:52 AM 69.1 °F 66.0 °F 90% 29.91 in 9.0 mi ESE 9.2 mph - 0.03 in Rain Light Rain
5:52 AM 69.1 °F 64.9 °F 87% 29.91 in 6.0 mi SE 9.2 mph 20.7 mph 0.06 in Rain Rain
6:52 AM 68.0 °F 64.9 °F 90% 29.89 in 10.0 mi East 6.9 mph - 0.02 in Rain Light Rain
8:52 AM 69.1 °F 64.9 °F 87% 29.87 in 10.0 mi ENE 8.1 mph - N/A   Overcast
9:00 AM 69.1 °F 64.0 °F 84% 29.87 in 10.0 mi East 8.1 mph - N/A   Overcast
9:52 AM 68.0 °F 64.9 °F 90% 29.86 in 10.0 mi NE 4.6 mph - N/A   Overcast
11:01 AM 68.0 °F 64.9 °F 90% 29.82 in 5.0 mi East 8.1 mph 21.9 mph 0.00 in Rain Light Rain
11:39 AM 69.1 °F 66.0 °F 90% 29.80 in 7.0 mi East 10.4 mph 17.3 mph 0.01 in Rain Light Rain
11:52 AM 69.1 °F 66.0 °F 90% 29.79 in 10.0 mi East 11.5 mph 20.7 mph 0.01 in   Overcast
12:52 PM 70.0 °F 66.9 °F 90% 29.77 in 8.0 mi ESE 9.2 mph - 0.01 in Rain Light Rain
1:44 PM 71.1 °F 66.9 °F 87% 29.74 in 2.5 mi ESE 13.8 mph 21.9 mph 0.06 in Rain Heavy Rain
1:52 PM 71.1 °F 68.0 °F 90% 29.74 in 5.0 mi ESE 15.0 mph 21.9 mph 0.06 in Rain Light Rain
2:18 PM 71.1 °F 68.0 °F 90% 29.72 in 3.0 mi ESE 13.8 mph - 0.02 in Rain Rain
2:52 PM 70.0 °F 68.0 °F 93% 29.70 in 2.5 mi ESE 12.7 mph 23.0 mph 0.04 in Rain Light Rain
3:20 PM 70.0 °F 66.9 °F 90% 29.69 in 3.0 mi SE 12.7 mph - 0.03 in Rain Light Rain
3:26 PM 70.0 °F 66.9 °F 90% 29.69 in 3.0 mi SE 17.3 mph 24.2 mph 0.04 in Rain Rain
3:37 PM 70.0 °F 66.9 °F 90% 29.68 in 5.0 mi SE 11.5 mph 19.6 mph 0.05 in Rain Light Rain
4:05 PM 70.0 °F 66.9 °F 90% 29.67 in 5.0 mi SE 13.8 mph 20.7 mph 0.01 in Rain Light Rain
4:52 PM 71.1 °F 68.0 °F 90% 29.65 in 9.0 mi SE 13.8 mph 21.9 mph 0.04 in   Overcast
5:52 PM 71.1 °F 69.1 °F 93% 29.63 in 5.0 mi SE 11.5 mph - 0.00 in Rain Light Rain
6:52 PM 72.0 °F 70.0 °F 93% 29.62 in 5.0 mi SE 5.8 mph - 0.02 in   Overcast
7:21 PM 72.0 °F 70.0 °F 93% 29.62 in 7.0 mi SSE 5.8 mph - N/A   Overcast
7:52 PM 72.0 °F 70.0 °F 93% 29.61 in 8.0 mi SSE 4.6 mph - N/A   Overcast
8:50 PM 71.6 °F 69.8 °F 94% 29.63 in 7.0 mi Variable 5.8 mph - N/A   Overcast
8:52 PM 71.1 °F 69.1 °F 93% 29.62 in 8.0 mi Variable 3.5 mph - N/A   Overcast
9:00 PM 71.1 °F 69.1 °F 93% 29.63 in 10.0 mi West 6.9 mph - N/A   Overcast
9:52 PM 70.0 °F 68.0 °F 93% 29.64 in 10.0 mi West 5.8 mph - N/A   Mostly Cloudy
10:52 PM 69.1 °F 66.0 °F 90% 29.65 in 10.0 mi WNW 5.8 mph - N/A   Mostly Cloudy